Weather History for KPPQ - January, 2013

Change the Weather History Date:

Wednesday, January 9, 2013

  Actual Average (KUIN) Record (KUIN)
Temperature  
Mean Temperature 43 °F 26 °F  
Max Temperature 52 °F 34 °F 66 °F (1939)
Min Temperature 34 °F 18 °F -12 °F (1982)
Degree Days  
Heating Degree Days 22 39  
Month to date heating degree days 347  
Since 1 July heating degree days 2538  
Cooling Degree Days 0 0  
Month to date cooling degree days 0  
Year to date cooling degree days 0  
Moisture  
Dew Point 33 °F    
Average Humidity 67    
Maximum Humidity 84    
Minimum Humidity 47    
Precipitation  
Precipitation 0.00 in 0.05 in 1.05 in (1946)
Month to date precipitation 0.48  
Year to date precipitation 0.48  
Sea Level Pressure  
Sea Level Pressure 30.36 in    
Wind  
Wind Speed 9 mph (West)    
Max Wind Speed 17 mph    
Max Gust Speed 17 mph    
Visibility 10 miles    
Events      
T = Trace of Precipitation, MM = Missing Value Source: NWS Daily Summary

Daily Weather History Graph

Daily Weather History Graph

Search for Another Location

Airport or City:

Trip Planner

Search our weather history database for the weather conditions in past years. The results will help you decide how hot, cold, wet, or windy it might be!

Date:

Astronomy

Jan. 09, 2013 Rise Set
Actual Time 7:23 AM CST 4:57 PM CST
Civil Twilight 6:53 AM CST 5:27 PM CST
Nautical Twilight 6:20 AM CST 6:00 PM CST
Astronomical Twilight 5:47 AM CST 6:33 PM CST
Moon 5:03 AM CST (1/9) 2:59 PM CST (1/9)
Length of Visible Light 10h 33m
Length of Day
9h 33m
Waning Crescent, 6% of the Moon is Illuminated
Jan 9
Waning Crescent
Jan 11
New
Jan 18
First Quarter
Jan 26
Full
Feb 3
Last Quarter

Hourly Weather History & Observations

Time (CST) Temp. Windchill Dew Point Humidity Pressure Visibility Wind Dir Wind Speed Gust Speed Precip Events Conditions
12:15 AM 45.0 °F 39.3 °F 30.9 °F 58% 30.13 in 10.0 mi SW 11.5 mph - N/A   Scattered Clouds
12:35 AM 45.3 °F 39.7 °F 31.6 °F 59% 30.14 in 10.0 mi SW 11.5 mph 17.3 mph N/A   Clear
12:55 AM 45.5 °F 39.6 °F 32.0 °F 59% 30.15 in 10.0 mi SW 12.7 mph - N/A   Scattered Clouds
1:15 AM 45.9 °F 40.4 °F 32.9 °F 61% 30.16 in 10.0 mi WSW 11.5 mph - N/A   Mostly Cloudy
1:35 AM 46.9 °F - 34.0 °F 61% 30.16 in 10.0 mi WSW 13.8 mph - N/A   Scattered Clouds
1:55 AM 46.4 °F 40.4 °F 34.2 °F 62% 30.17 in 10.0 mi WSW 13.8 mph - N/A   Clear
2:15 AM 46.2 °F 40.8 °F 34.7 °F 64% 30.18 in 10.0 mi WSW 11.5 mph - N/A   Clear
2:35 AM 45.9 °F 40.4 °F 34.9 °F 66% 30.20 in 10.0 mi WSW 11.5 mph - N/A   Clear
2:55 AM 45.0 °F 40.6 °F 34.7 °F 67% 30.21 in 10.0 mi West 8.1 mph - N/A   Clear
3:15 AM 44.1 °F 40.8 °F 34.7 °F 70% 30.22 in 10.0 mi WSW 5.8 mph - N/A   Clear
3:35 AM 42.8 °F 37.5 °F 34.3 °F 72% 30.23 in 10.0 mi WSW 9.2 mph - N/A   Clear
3:55 AM 41.9 °F 36.9 °F 34.2 °F 74% 30.24 in 10.0 mi WSW 8.1 mph - N/A   Clear
4:15 AM 41.0 °F 35.8 °F 34.0 °F 76% 30.24 in 10.0 mi WSW 8.1 mph - N/A   Clear
4:35 AM 40.8 °F 35.0 °F 33.8 °F 76% 30.25 in 10.0 mi WSW 9.2 mph - N/A   Clear
4:55 AM 40.1 °F 34.7 °F 33.3 °F 77% 30.25 in 10.0 mi WSW 8.1 mph - N/A   Clear
5:15 AM 40.1 °F 35.3 °F 33.3 °F 77% 30.25 in 10.0 mi West 6.9 mph - N/A   Clear
5:35 AM 39.0 °F 35.7 °F 32.9 °F 79% 30.26 in 10.0 mi WSW 4.6 mph - N/A   Clear
5:55 AM 38.5 °F 35.0 °F 32.9 °F 80% 30.27 in 10.0 mi West 4.6 mph - N/A   Clear
6:15 AM 37.9 °F 33.5 °F 32.4 °F 80% 30.28 in 10.0 mi West 5.8 mph - N/A   Clear
6:35 AM 37.9 °F 32.7 °F 32.4 °F 80% 30.29 in 10.0 mi WSW 6.9 mph - N/A   Clear
6:55 AM 38.7 °F 34.3 °F 32.9 °F 80% 30.30 in 10.0 mi WSW 5.8 mph - N/A   Clear
7:15 AM 38.3 °F 33.2 °F 32.7 °F 80% 30.31 in 10.0 mi West 6.9 mph - N/A   Clear
7:35 AM 37.8 °F 33.3 °F 32.4 °F 81% 30.33 in 10.0 mi West 5.8 mph - N/A   Clear
7:55 AM 38.5 °F 34.1 °F 32.5 °F 79% 30.33 in 10.0 mi WSW 5.8 mph - N/A   Clear
8:15 AM 38.7 °F 32.9 °F 32.9 °F 80% 30.34 in 10.0 mi WSW 8.1 mph - N/A   Clear
8:35 AM 38.5 °F 34.1 °F 32.9 °F 80% 30.34 in 10.0 mi West 5.8 mph - N/A   Clear
8:55 AM 41.0 °F 37.1 °F 33.8 °F 76% 30.36 in 10.0 mi West 5.8 mph - N/A   Clear
9:15 AM 40.1 °F 36.1 °F 33.8 °F 78% 30.38 in 10.0 mi WNW 5.8 mph - N/A   Clear
9:35 AM 41.7 °F 37.3 °F 34.0 °F 74% 30.38 in 10.0 mi WNW 6.9 mph - N/A   Clear
9:55 AM 43.3 °F 39.9 °F 34.3 °F 71% 30.40 in 10.0 mi WNW 5.8 mph - N/A   Clear
10:15 AM 44.6 °F 40.7 °F 34.2 °F 67% 30.40 in 10.0 mi WNW 6.9 mph - N/A   Clear
10:35 AM 45.5 °F 40.3 °F 35.1 °F 67% 30.40 in 10.0 mi NW 10.4 mph - N/A   Clear
10:55 AM 46.4 °F 41.5 °F 35.6 °F 66% 30.40 in 10.0 mi NW 10.4 mph - N/A   Clear
11:15 AM 47.3 °F - 35.1 °F 62% 30.40 in 10.0 mi WNW 9.2 mph - N/A   Clear
11:35 AM 48.2 °F - 35.6 °F 62% 30.39 in 10.0 mi NW 9.2 mph - N/A   Clear
11:55 AM 49.3 °F - 35.6 °F 59% 30.38 in 10.0 mi NW 10.4 mph - N/A   Clear
12:15 PM 50.4 °F - 34.7 °F 55% 30.38 in 10.0 mi NW 11.5 mph - N/A   Clear
12:35 PM 51.1 °F - 33.8 °F 52% 30.38 in 10.0 mi NW 11.5 mph - N/A   Clear
12:55 PM 51.8 °F - 33.6 °F 50% 30.38 in 10.0 mi NW 11.5 mph - N/A   Clear
1:15 PM 51.8 °F - 33.3 °F 49% 30.38 in 10.0 mi NNW 13.8 mph - N/A   Clear
1:35 PM 52.0 °F - 34.2 °F 51% 30.38 in 10.0 mi NW 13.8 mph - N/A   Clear
1:55 PM 52.0 °F - 32.9 °F 48% 30.38 in 10.0 mi NW 17.3 mph - N/A   Clear
2:15 PM 51.8 °F - 32.4 °F 48% 30.39 in 10.0 mi NW 13.8 mph - N/A   Clear
2:35 PM 51.1 °F - 31.3 °F 47% 30.40 in 10.0 mi NNW 13.8 mph - N/A   Clear
2:55 PM 50.7 °F - 32.4 °F 49% 30.41 in 10.0 mi NW 8.1 mph - N/A   Clear
3:15 PM 50.2 °F - 32.4 °F 50% 30.41 in 10.0 mi North 8.1 mph - N/A   Clear
3:35 PM 49.3 °F - 32.0 °F 51% 30.42 in 10.0 mi North 8.1 mph - N/A   Clear
3:55 PM 47.7 °F - 32.4 °F 55% 30.42 in 10.0 mi North 5.8 mph - N/A   Clear
4:15 PM 47.7 °F - 32.4 °F 55% 30.43 in 10.0 mi North 4.6 mph - N/A   Clear
4:35 PM 46.2 °F - 32.5 °F 59% 30.44 in 10.0 mi Calm Calm - N/A   Clear
4:55 PM 44.6 °F 43.1 °F 32.0 °F 61% 30.43 in 10.0 mi NE 3.5 mph - N/A   Clear
5:15 PM 45.1 °F - 32.0 °F 60% 30.44 in 10.0 mi Calm Calm - N/A   Clear
5:35 PM 44.6 °F - 31.8 °F 61% 30.44 in 10.0 mi Calm Calm - N/A   Clear
5:55 PM 42.8 °F - 31.8 °F 65% 30.44 in 10.0 mi Calm Calm - N/A   Clear
6:15 PM 42.3 °F - 32.0 °F 67% 30.45 in 10.0 mi Calm Calm - N/A   Clear
6:35 PM 38.3 °F 35.9 °F 31.8 °F 77% 30.46 in 10.0 mi SSE 3.5 mph - N/A   Clear
6:55 PM 38.5 °F 36.1 °F 31.6 °F 76% 30.47 in 10.0 mi SSE 3.5 mph - N/A   Clear
7:15 PM 39.2 °F - 32.0 °F 75% 30.48 in 10.0 mi Calm Calm - N/A   Clear
7:35 PM 39.2 °F 35.9 °F 32.0 °F 75% 30.48 in 10.0 mi SE 4.6 mph - N/A   Clear
7:55 PM 36.3 °F 32.5 °F 31.6 °F 83% 30.48 in 10.0 mi SE 4.6 mph - N/A   Clear
8:15 PM 38.1 °F 34.6 °F 31.8 °F 78% 30.49 in 10.0 mi SE 4.6 mph - N/A   Clear
8:35 PM 41.0 °F 37.1 °F 31.8 °F 70% 30.48 in 10.0 mi ESE 5.8 mph - N/A   Clear
8:55 PM 40.6 °F 36.7 °F 31.1 °F 69% 30.48 in 10.0 mi East 5.8 mph - N/A   Clear
9:15 PM 39.9 °F 37.8 °F 30.4 °F 69% 30.48 in 10.0 mi East 3.5 mph - N/A   Clear
9:35 PM 39.2 °F 35.9 °F 30.4 °F 71% 30.48 in 10.0 mi ENE 4.6 mph - N/A   Clear
9:55 PM 39.0 °F 36.8 °F 30.9 °F 73% 30.48 in 10.0 mi East 3.5 mph - N/A   Clear
10:15 PM 38.5 °F 35.0 °F 30.0 °F 72% 30.48 in 10.0 mi NE 4.6 mph - N/A   Clear
10:35 PM 39.4 °F 36.1 °F 30.0 °F 69% 30.46 in 10.0 mi NE 4.6 mph - N/A   Clear
10:55 PM 39.7 °F 37.6 °F 30.2 °F 69% 30.46 in 10.0 mi ESE 3.5 mph - N/A   Clear
11:15 PM 34.7 °F 31.8 °F 30.2 °F 84% 30.47 in 10.0 mi SE 3.5 mph - N/A   Clear
11:35 PM 37.9 °F 34.4 °F 30.2 °F 74% 30.47 in 10.0 mi ESE 4.6 mph - N/A   Clear
11:55 PM 36.0 °F 33.3 °F 29.7 °F 78% 30.46 in 10.0 mi ENE 3.5 mph - N/A   Clear